Ozona, TX

1:12 PM CDT on July 23, 2017 (GMT -0500)
Ozona Municipal

Weather History for KOZA - February, 2014

Change the Weather History Date:

Saturday, February 8, 2014

  Actual Average Record
Temperature  
Mean Temperature 50 °F -  
Max Temperature 73 °F 59 °F 80 °F (2017)
Min Temperature 26 °F 29 °F 26 °F (2014)
Degree Days  
Heating Degree Days 16    
Moisture  
Dew Point 28 °F    
Average Humidity 57    
Maximum Humidity 100    
Minimum Humidity 18    
Precipitation  
Precipitation 0.00 in - - ()
Sea Level Pressure  
Sea Level Pressure 30.12 in    
Wind  
Wind Speed 5 mph (SSW)    
Max Wind Speed 15 mph    
Max Gust Speed 20 mph    
Visibility 10 miles    
Events      
Averages and records for this station are not official NWS values.
T = Trace of Precipitation, MM = Missing Value Source: NWS Daily Summary

Daily Weather History Graph

Daily Weather History Graph

Search for Another Location

Airport or City:

Trip Planner

Search our weather history database for the weather conditions in past years. The results will help you decide how hot, cold, wet, or windy it might be!

Date:

Astronomy

Feb. 08, 2014 Rise Set
Actual Time 7:31 AM CST 6:27 PM CST
Civil Twilight 7:06 AM CST 6:51 PM CST
Nautical Twilight 6:37 AM CST 7:20 PM CST
Astronomical Twilight 6:09 AM CST 7:48 PM CST
Moon 1:28 PM CST (2/8) 2:40 AM CST (2/8)
Length of Visible Light 11h 45m
Length of Day
10h 55m
Waxing Gibbous, 69% of the Moon is Illuminated
Feb 8
Waxing Gibbous
Feb 14
Full
Feb 22
Last Quarter
Mar 1
New
Mar 8
First Quarter

Hourly Weather History & Observations

Time (CST) Temp. Windchill Dew Point Humidity Pressure Visibility Wind Dir Wind Speed Gust Speed Precip Events Conditions
12:15 AM 32.0 °F - 26.6 °F 80% 30.18 in 10.0 mi Calm Calm - N/A   Clear
12:35 AM 32.0 °F - 26.6 °F 80% 30.16 in 10.0 mi Calm Calm - N/A   Clear
12:55 AM 32.0 °F 25.6 °F 26.6 °F 80% 30.16 in 10.0 mi SSW 6.9 mph - N/A   Clear
1:15 AM 32.0 °F 26.4 °F 26.6 °F 80% 30.17 in 10.0 mi SSW 5.8 mph - N/A   Clear
1:35 AM 32.0 °F 27.5 °F 26.6 °F 80% 30.16 in 10.0 mi SSW 4.6 mph - N/A   Clear
1:55 AM 32.0 °F 24.8 °F 28.4 °F 87% 30.16 in 10.0 mi SW 8.1 mph - N/A   Clear
2:15 AM 32.0 °F 24.8 °F 28.4 °F 87% 30.16 in 10.0 mi SW 8.1 mph - N/A   Clear
2:35 AM 32.0 °F 24.8 °F 28.4 °F 87% 30.16 in 10.0 mi SW 8.1 mph - N/A   Clear
2:55 AM 32.0 °F 25.6 °F 28.4 °F 87% 30.16 in 10.0 mi SSW 6.9 mph - N/A   Clear
3:15 AM 32.0 °F 24.8 °F 28.4 °F 87% 30.16 in 10.0 mi SSW 8.1 mph - N/A   Clear
3:35 AM 30.2 °F 23.4 °F 28.4 °F 93% 30.16 in 10.0 mi SSW 6.9 mph - N/A   Clear
3:55 AM 30.2 °F 23.4 °F 28.4 °F 93% 30.16 in 10.0 mi SSW 6.9 mph - N/A   Clear
4:15 AM 30.2 °F 25.4 °F 28.4 °F 93% 30.16 in 10.0 mi SSW 4.6 mph - N/A   Clear
4:35 AM 30.2 °F 25.4 °F 28.4 °F 93% 30.15 in 10.0 mi SSW 4.6 mph - N/A   Clear
4:55 AM 30.2 °F 25.4 °F 28.4 °F 93% 30.15 in 10.0 mi SSW 4.6 mph - N/A   Clear
5:15 AM 30.2 °F 25.4 °F 28.4 °F 93% 30.13 in 10.0 mi South 4.6 mph - N/A   Clear
5:35 AM 30.2 °F 25.4 °F 28.4 °F 93% 30.14 in 10.0 mi SSW 4.6 mph - N/A   Clear
5:55 AM 28.4 °F 23.3 °F 28.4 °F 100% 30.15 in 10.0 mi SW 4.6 mph - N/A   Clear
6:15 AM 28.4 °F - 28.4 °F 100% 30.14 in 7.0 mi Calm Calm - N/A   Clear
6:35 AM 28.4 °F 23.3 °F 26.6 °F 93% 30.15 in 7.0 mi South 4.6 mph - N/A   Clear
6:55 AM 26.6 °F 20.0 °F 26.6 °F 100% 30.15 in 7.0 mi SSW 5.8 mph - N/A   Clear
7:15 AM 28.4 °F 22.2 °F 28.4 °F 100% 30.15 in 7.0 mi SSW 5.8 mph - N/A   Clear
7:35 AM 28.4 °F 22.2 °F 28.4 °F 100% 30.16 in 7.0 mi SSW 5.8 mph - N/A   Clear
7:55 AM 30.2 °F 25.4 °F 28.4 °F 93% 30.17 in 5.0 mi SSW 4.6 mph - N/A   Clear
8:15 AM 30.2 °F 25.4 °F 30.2 °F 100% 30.17 in 5.0 mi South 4.6 mph - N/A   Clear
8:35 AM 32.0 °F 25.6 °F 30.2 °F 93% 30.18 in 7.0 mi South 6.9 mph - N/A   Clear
8:55 AM 32.0 °F 25.6 °F 30.2 °F 93% 30.18 in 10.0 mi South 6.9 mph - N/A   Clear
9:15 AM 33.8 °F 28.6 °F 32.0 °F 93% 30.18 in 10.0 mi South 5.8 mph - N/A   Clear
9:35 AM 37.4 °F 33.8 °F 32.0 °F 81% 30.18 in 10.0 mi SSE 4.6 mph - N/A   Clear
9:55 AM 41.0 °F 37.1 °F 32.0 °F 70% 30.18 in 10.0 mi SSW 5.8 mph - N/A   Clear
10:15 AM 44.6 °F 40.7 °F 32.0 °F 61% 30.17 in 10.0 mi SSW 6.9 mph - N/A   Clear
10:35 AM 48.2 °F - 32.0 °F 54% 30.17 in 10.0 mi SSW 10.4 mph - N/A   Clear
10:55 AM 51.8 °F - 32.0 °F 47% 30.17 in 10.0 mi SW 9.2 mph - N/A   Clear
11:15 AM 53.6 °F - 30.2 °F 41% 30.16 in 10.0 mi SSW 6.9 mph - N/A   Clear
11:35 AM 59.0 °F - 30.2 °F 34% 30.16 in 10.0 mi SSW 10.4 mph 16.1 mph N/A   Clear
11:55 AM 60.8 °F - 30.2 °F 31% 30.14 in 10.0 mi SW 11.5 mph 17.3 mph N/A   Clear
12:15 PM 62.6 °F - 28.4 °F 27% 30.15 in 10.0 mi WSW 15.0 mph 19.6 mph N/A   Clear
12:35 PM 64.4 °F - 28.4 °F 26% 30.13 in 10.0 mi SW 11.5 mph 18.4 mph N/A   Clear
12:55 PM 68.0 °F - 28.4 °F 23% 30.11 in 10.0 mi SW 10.4 mph 17.3 mph N/A   Clear
1:15 PM 68.0 °F - 28.4 °F 23% 30.09 in 10.0 mi SW 10.4 mph 16.1 mph N/A   Clear
1:35 PM 69.8 °F - 28.4 °F 21% 30.08 in 10.0 mi SSW 10.4 mph 17.3 mph N/A   Clear
1:55 PM 69.8 °F - 28.4 °F 21% 30.08 in 10.0 mi South 6.9 mph - N/A   Clear
2:15 PM 71.6 °F - 26.6 °F 19% 30.08 in 10.0 mi SW 4.6 mph - N/A   Clear
2:35 PM 71.6 °F - 26.6 °F 19% 30.08 in 10.0 mi WSW 11.5 mph - N/A   Clear
2:55 PM 71.6 °F - 26.6 °F 19% 30.06 in 10.0 mi WSW 4.6 mph 16.1 mph N/A   Clear
3:15 PM 71.6 °F - 26.6 °F 19% 30.07 in 10.0 mi WSW 10.4 mph - N/A   Clear
3:35 PM 71.6 °F - 26.6 °F 19% 30.06 in 10.0 mi SW 8.1 mph - N/A   Clear
3:55 PM 73.4 °F - 26.6 °F 18% 30.05 in 10.0 mi WSW 11.5 mph 17.3 mph N/A   Clear
4:15 PM 71.6 °F - 26.6 °F 19% 30.03 in 10.0 mi WSW 10.4 mph - N/A   Clear
4:35 PM 71.6 °F - 26.6 °F 19% 30.03 in 10.0 mi SSW 8.1 mph - N/A   Clear
4:55 PM 71.6 °F - 26.6 °F 19% 30.03 in 10.0 mi WSW 9.2 mph - N/A   Clear
5:15 PM 71.6 °F - 26.6 °F 19% 30.04 in 10.0 mi SSW 10.4 mph - N/A   Clear
5:35 PM 69.8 °F - 26.6 °F 20% 30.05 in 10.0 mi SW 8.1 mph - N/A   Clear
5:55 PM 69.8 °F - 26.6 °F 20% 30.05 in 10.0 mi SSW 6.9 mph - N/A   Clear
6:15 PM 66.2 °F - 26.6 °F 23% 30.07 in 10.0 mi SSW 5.8 mph - N/A   Clear
6:35 PM 62.6 °F - 26.6 °F 26% 30.07 in 10.0 mi SSW 6.9 mph - N/A   Clear
6:55 PM 60.8 °F - 26.6 °F 27% 30.08 in 10.0 mi SSW 5.8 mph - N/A   Clear
7:15 PM 59.0 °F - 26.6 °F 29% 30.08 in 10.0 mi SW 8.1 mph - N/A   Clear
7:35 PM 55.4 °F - 26.6 °F 33% 30.09 in 10.0 mi SSW 4.6 mph - N/A   Clear
7:55 PM 53.6 °F - 26.6 °F 35% 30.09 in 10.0 mi SW 8.1 mph - N/A   Clear
8:15 PM 53.6 °F - 26.6 °F 35% 30.09 in 10.0 mi SSW 4.6 mph - N/A   Clear
8:35 PM 50.0 °F - 26.6 °F 40% 30.10 in 10.0 mi Calm Calm - N/A   Clear
8:55 PM 50.0 °F - 26.6 °F 40% 30.10 in 10.0 mi Calm Calm - N/A   Clear
9:15 PM 50.0 °F - 26.6 °F 40% 30.11 in 10.0 mi SSW 4.6 mph - N/A   Clear
9:35 PM 48.2 °F - 28.4 °F 46% 30.11 in 10.0 mi Calm Calm - N/A   Clear
9:55 PM 48.2 °F - 28.4 °F 46% 30.12 in 10.0 mi Calm Calm - N/A   Clear
10:15 PM 42.8 °F 41.1 °F 26.6 °F 53% 30.12 in 10.0 mi WSW 3.5 mph - N/A   Clear
10:35 PM 41.0 °F - 26.6 °F 57% 30.12 in 10.0 mi Calm Calm - N/A   Clear
10:55 PM 41.0 °F - 26.6 °F 57% 30.12 in 10.0 mi Calm Calm - N/A   Clear
11:15 PM 39.2 °F - 26.6 °F 61% 30.12 in 10.0 mi Calm Calm - N/A   Clear
11:35 PM 37.4 °F - 26.6 °F 65% 30.13 in 10.0 mi Calm Calm - N/A   Clear
11:55 PM 37.4 °F - 28.4 °F 70% 30.12 in 10.0 mi Calm Calm - N/A   Clear